Kezdőlap
METAR-TAF:

METAR-TAF

Repülőterek :

Shenandoah Municipal Airport

Shenandoah, Iowa, Amerikai Egyesült Államok

földrajzi szélesség: 40-45N, földrajzi hosszúság: 095-25W, magasság: 296 m

Jelenlegi meteorológiai megfigyelések

A jelentés 21 perccel ezelõtt készült, 20:15 UTC
Különbözõ irányokból fújó szél 6 kt
Hőmérséklet 22°C
Páratartalom 33%
Légköri nyomás 1024 hPa
Látótávolság: 16.1 km
Derült ég

METAR: KSDA 222015Z AUTO VRB06KT 10SM CLR 22/05 A3024 RMK AO2

Idő: 15:36 (20:36 UTC)


TAF: hiányzik

Meteorológiai megfigyelések és előrejelzések több, mint 4000 repülőtéren (METAR és TAF jelentéseket).

A térképen piros és sárga pontok jelzik az elérhető meteorológiai állomásokat.

Mozgassa az egeret a pont fölött, hogy megjelenjen az állomás neve.

Azután kattintson az időjárási megfigyelések és előrejelzések megtekintéséhez.

A térkép megváltoztatása: kattintson a fekete keresztel jelölt zöld gombra ráközelítéshez, a vonallal jelölt zöld gombra távolításhoz, vagy a zöld nyilakra a szomszédos térképek eléréséhez.


METAR-TAF: